User: anonymous   Login
Location: Sternwarte auf dem Internationalen Platz Vogelsang IP
(50.5721°N, 6.4398°E)
Time: 18:37:09
(UTC+01:00)
Language:

BEESAT - Orbit

View from above orbital plane
View from above orbital plane
View from above satellite
View from above satellite

Ground track
Ground track

The orbit is defined by the following mean orbital elements,

1 35933U          26017.97750029 +.00000000 +00000-0 +19823-3 0 00007
2 35933  98.4073 283.1524 0005092 348.2749  11.8332 14.61380212    00
Epoch (UTC): 17 January 2026 23:27:36
Eccentricity: 0.0005092
inclination: 98.4073°
perigee height: 685 km
apogee height: 692 km
right ascension of ascending node: 283.1524°
argument of perigee: 348.2749°
revolutions per day: 14.61380212
mean anomaly at epoch: 11.8332°

The dashed part of the orbit path shows where the satellite is in the earth's shadow,  

DLR